This is the latest recevied weather packets stored in our database for station/object KI4BSX. If no packets are shown the sender has not sent any weather packets the latest 1 day(s).
| Time | Temp. | Humidity | Pressure | Rain* | Wind** | Luminosity | Snow |
|---|---|---|---|---|---|---|---|
| 1778010479 | 27.22° C | 40% | 1016.8 hPa | 0 mm | 0.89 m/s, 12° | - | - |
| 1778010176 | 26.67° C | 40% | 1016.8 hPa | 0 mm | 0.45 m/s, 113° | - | - |
| 1778009871 | 26.67° C | 40% | 1017.1 hPa | 0 mm | 0.45 m/s, 16° | - | - |
| 1778009569 | 27.22° C | 41% | 1017 hPa | 0 mm | 1.34 m/s, 94° | - | - |
| 1778009267 | 26.67° C | 41% | 1017.1 hPa | 0 mm | 0.89 m/s, 50° | - | - |
| 1778008965 | 26.67° C | 40% | 1017.2 hPa | 0 mm | 0.89 m/s, 356° | - | - |
| 1778008663 | 26.67° C | 40% | 1017 hPa | 0 mm | 0.89 m/s, 307° | - | - |
| 1778008361 | 26.67° C | 41% | 1017 hPa | 0 mm | 0.45 m/s, 84° | - | - |
| 1778008057 | 26.67° C | 41% | 1017.4 hPa | 0 mm | 0.89 m/s, 62° | - | - |
| 1778007752 | 26.67° C | 41% | 1017.6 hPa | 0 mm | 1.79 m/s, 41° | - | - |
| 1778007448 | 27.22° C | 40% | 1017.6 hPa | 0 mm | 0.89 m/s, 73° | - | - |
| 1778007145 | 27.22° C | 42% | 1017.5 hPa | 0 mm | 0.45 m/s, 119° | - | - |
| 1778006841 | 26.11° C | 40% | 1017.7 hPa | 0 mm | 0.89 m/s, 230° | - | - |
| 1778006539 | 26.67° C | 41% | 1017.7 hPa | 0 mm | 0.89 m/s, 21° | - | - |
| 1778006235 | 26.67° C | 41% | 1018 hPa | 0 mm | 0.45 m/s, 351° | - | - |
| 1778005933 | 26.67° C | 40% | 1017.9 hPa | 0 mm | 0.45 m/s, 296° | - | - |
| 1778005629 | 27.22° C | 39% | 1017.8 hPa | 0 mm | 0.89 m/s, 66° | - | - |
| 1778005326 | 26.67° C | 40% | 1017.9 hPa | 0 mm | 0.89 m/s, 329° | - | - |
| 1778005022 | 26.67° C | 40% | 1017.9 hPa | 0 mm | 0.89 m/s, 79° | - | - |
| 1778004720 | 26.67° C | 41% | 1018 hPa | 0 mm | 0.45 m/s, 273° | - | - |
| 1778004416 | 26.11° C | 41% | 1018 hPa | 0 mm | 0.89 m/s, 16° | - | - |
| 1778004113 | 26.67° C | 41% | 1018 hPa | 0 mm | 0 m/s | - | - |
| 1778003809 | 26.11° C | 40% | 1018 hPa | 0 mm | 0.45 m/s, 337° | - | - |
| 1778003506 | 27.22° C | 42% | 1018.2 hPa | 0 mm | 0 m/s | - | - |
| 1778003202 | 26.11° C | 41% | 1018.1 hPa | 0 mm | 1.34 m/s, 82° | - | - |
* Rain latest hour (hover to see other rain measurements)
** Current wind speed in m/s (hover to see current wind gust speed)